[[{"header":{"parameterUnit":"m.s-1","parameterCategory":2,"la1":30.2991,"la2":30.254,"lo1":-89.0895,"lo2":-89.0444,"dy":0.0017,"dx":0.0017,"nx":28,"ny":28,"refTime":"2025-09-04T03:00:00:Z","depth":"0","parameterNumber":2,"parameterNumberName":"U-component_of_CURRENTS"},"data":[0,0,0,0,0,0,0,0,0,0,0,0,0,0,0,0,0,0,0,0,0,0,0,0,0,0,0,0,0,0,0,0,0,0,0,0,0,0,0,0,0,0,0,0,0,0,0,0,0,0,0,0,0,0,0,0,0,0,0.3613,0.3614,0,0.363,0.3629,0.3628,0.3565,0.3564,0.3563,0.3562,0.359,0.3591,0.3593,0,0,0,0,0,0,0,0,0,0,0,0,0,0.3576,0.3576,0.3613,0.3614,0.3615,0.363,0.3629,0.3628,0.3566,0.3564,0.3563,0.3562,0.3589,0.3591,0.3593,0,0,0,0,0,0,0,0,0,0,0,0,0,0.3583,0.3576,0.3613,0.3593,0.3592,0.363,0.3629,0.3628,0.3566,0.3564,0.3563,0.3561,0.3589,0.3591,0.3593,0.3639,0,0,0.3601,0.3602,0,0,0,0,0,0,0,0,0.3583,0.3583,0.3594,0.3594,0.3593,0.3602,0.3627,0.3636,0.3566,0.3566,0.3562,0.3561,0.3602,0.3604,0.3596,0.364,0.3642,0.3601,0.3603,0.3604,0.3605,0,0,0,0,0,0,0,0.3582,0.3583,0.361,0.3596,0.3595,0.36,0.3598,0.3627,0.3585,0.3566,0.3563,0.3581,0.36,0.3594,0.3597,0.3642,0.3601,0.3603,0.3605,0.3606,0.3744,0.3746,0,0,0,0,0,0,0.3598,0.3582,0.361,0.3611,0.3595,0.3603,0.36,0.3593,0.3584,0.3584,0.3582,0.3578,0.359,0.3594,0.3598,0.3663,0.3604,0.3606,0.3608,0.3741,0.3744,0.3746,0,0,0,0,0,0,0.3597,0.36,0.3609,0.3606,0.3609,0.3605,0.3598,0.3594,0.359,0.3599,0.3596,0.3583,0.3589,0.3594,0.3639,0.3663,0.3607,0.361,0.3739,0.3742,0.3745,0.3787,0,0,0,0,0,0,0.3595,0.3598,0.3608,0.3606,0.361,0.3638,0.3601,0.3596,0.3608,0.3602,0.36,0.36,0.3589,0.3636,0.3642,0.3666,0.3612,0.3736,0.374,0.3744,0.3783,0.3791,0.3798,0,0,0,0,0,0.3593,0.3604,0.3607,0.3612,0.3619,0.364,0.3641,0.3628,0.361,0.3615,0.3622,0.36,0.3665,0.364,0.3646,0.3671,0.3734,0.3739,0.3744,0.3779,0.379,0.3798,0,0,0,0,0,0,0.3581,0.36,0.3603,0.3615,0.3636,0.3633,0.3647,0.364,0.3647,0.3646,0.3634,0.3636,0.3687,0.3683,0.3656,0.3726,0.3695,0.3701,0.3719,0.3729,0.3737,0.3699,0.3614,0,0,0,0,0,0.3592,0.36,0.3625,0.3633,0.3652,0.3654,0.3665,0.3661,0.3669,0.3668,0.3671,0.3685,0.3714,0.3723,0.3749,0.3791,0.3814,0.3811,0.3819,0.3825,0.3802,0.386,0.387,0.3762,0.3762,0.3762,0,0,0.3585,0.3602,0.3604,0.3634,0.3645,0.3667,0.3652,0.3677,0.3686,0.3677,0.3695,0.3722,0.3736,0.3779,0.38,0.3775,0.3885,0.3832,0.3837,0.3809,0.3866,0.3876,0.3885,0.3766,0.3765,0.3764,0,0,0.3586,0.36,0.3617,0.364,0.3684,0.3688,0.3701,0.3719,0.372,0.3764,0.3756,0.3793,0.3837,0.3837,0.3847,0.3917,0.3933,0.3937,0.3933,0.3991,0.4,0.4007,0.4116,0.4132,0.3929,0.393,0.393,0,0.3578,0.3605,0.3626,0.3656,0.3681,0.3698,0.3725,0.3732,0.3759,0.3783,0.3779,0.3847,0.3857,0.3892,0.3906,0.3931,0.3985,0.3893,0.3999,0.4006,0.4013,0.4122,0.414,0.3932,0.3932,0.3932,0.3931,0,0.3602,0.3626,0.3641,0.3678,0.3705,0.3734,0.3763,0.3791,0.381,0.3828,0.3888,0.3903,0.3935,0.3953,0.3945,0.3998,0.4035,0.4012,0.3968,0.4026,0.4139,0.4157,0.3936,0.3935,0.3934,0.3933,0,0,0.3564,0.3641,0.3644,0.3671,0.3725,0.3743,0.3783,0.3831,0.3858,0.3895,0.3942,0.3971,0.3982,0.3991,0.3993,0.4019,0.4135,0.4028,0.403,0.4124,0.4315,0.4254,0.4268,0.4134,0.4136,0.4137,0.4398,0,0.3575,0.363,0.3669,0.3708,0.3743,0.3783,0.381,0.3857,0.3903,0.3956,0.3985,0.4031,0.3995,0.402,0.4043,0.4119,0.4173,0.4069,0.4253,0.4259,0.4186,0.4281,0.4065,0.4269,0.4415,0.4418,0.442,0,0.3599,0.3628,0.3677,0.3737,0.3755,0.3773,0.384,0.387,0.3951,0.3993,0.4042,0.4079,0.4136,0.4091,0.4226,0.417,0.4236,0.4283,0.4294,0.4216,0.4227,0.4223,0.4295,0.4158,0.4447,0.4445,0.4443,0,0.3578,0.3641,0.3677,0.3696,0.3757,0.3783,0.3813,0.3885,0.3924,0.4016,0.4078,0.4146,0.4214,0.4276,0.4371,0.432,0.454,0.4492,0.4507,0.4508,0.4342,0.4322,0.4274,0.4581,0.458,0.458,0.4579,0,0.359,0.3615,0.3664,0.3677,0.3709,0.3761,0.3806,0.3853,0.3937,0.4006,0.4078,0.416,0.4259,0.4394,0.444,0.4549,0.4612,0.4523,0.4559,0.4359,0.4339,0.4222,0.4185,0.459,0.4587,0.4586,0.4584,0,0.3574,0.3611,0.3641,0.3688,0.3702,0.3719,0.3787,0.383,0.3909,0.401,0.4049,0.4227,0.4407,0.4517,0.4686,0.4658,0.4618,0.4771,0.4556,0.4556,0.4363,0.4338,0.4215,0.4098,0.4821,0.4821,0.4821,0,0.3585,0.3599,0.3627,0.3641,0.366,0.3693,0.3727,0.3799,0.3854,0.4048,0.4107,0.4329,0.4458,0.4699,0.471,0.4814,0.4669,0.4662,0.4472,0.433,0.4331,0.4165,0.4062,0.4328,0.4324,0.432,0.4317,0,0.3588,0.3588,0.3598,0.3619,0.3644,0.3669,0.3724,0.3759,0.3873,0.3966,0.413,0.4254,0.4479,0.4496,0.4629,0.4641,0.4397,0.4593,0.4484,0.3963,0.374,0.3651,0.4235,0.4287,0.429,0.4292,0.4294,0.4295,0.3583,0.3571,0.3583,0.3596,0.3628,0.3649,0.3631,0.3715,0.3783,0.3879,0.4067,0.4147,0.4256,0.4393,0.4392,0.4205,0.4221,0.4038,0.4046,0.391,0.3668,0.4204,0.4249,0.4252,0.4254,0.4256,0.4258,0,0.3563,0.3556,0.3574,0.3571,0.3582,0.3606,0.3633,0.359,0.3631,0.3741,0.3835,0.3864,0.3888,0.3928,0.3826,0.3657,0.3471,0.3563,0.3256,0.3204,0.372,0.3561,0.3407,0.3407,0.3407,0.3407,0.3408,0.3408,0.3554,0.3544,0.3534,0.3525,0.3525,0.3457,0.3435,0.3394,0.3403,0.336,0.3324,0.3385,0.3517,0.3543,0.3352,0.3257,0.2992,0.2855,0.29,0.324,0.3282,0.3322,0.3159,0.2924,0.2923,0.2179,0.2173,0.2169]},{"header":{"parameterUnit":"m.s-1","parameterCategory":2,"la1":30.2991,"la2":30.254,"lo1":-89.0895,"lo2":-89.0444,"dy":0.0017,"dx":0.0017,"nx":28,"ny":28,"refTime":"2025-09-04T03:00:00:Z","depth":"0","parameterNumber":3,"parameterNumberName":"V-component_of_CURRENTS"},"data":[0,0,0,0,0,0,0,0,0,0,0,0,0,0,0,0,0,0,0,0,0,0,0,0,0,0,0,0,0,0,0,0,0,0,0,0,0,0,0,0,0,0,0,0,0,0,0,0,0,0,0,0,0,0,0,0,0,0,-0.0035,-0.0036,0,-0.0065,-0.0065,-0.0065,-0.005,-0.005,-0.0049,-0.0049,-0.0142,-0.0144,-0.0147,0,0,0,0,0,0,0,0,0,0,0,0,0,-0.0001,-0.0001,-0.0035,-0.0036,-0.0036,-0.0065,-0.0065,-0.0065,-0.005,-0.005,-0.0049,-0.0048,-0.0141,-0.0144,-0.0148,0,0,0,0,0,0,0,0,0,0,0,0,0,-0.0019,-0.0001,-0.0035,-0.0035,-0.0035,-0.0065,-0.0065,-0.0065,-0.005,-0.005,-0.0049,-0.0048,-0.014,-0.0144,-0.0148,-0.019,0,0,-0.0162,-0.0164,0,0,0,0,0,0,0,0,-0.0018,-0.002,-0.0034,-0.0035,-0.0035,-0.0056,-0.0087,-0.0111,-0.005,-0.0041,-0.0049,-0.0048,-0.0121,-0.0127,-0.0129,-0.0194,-0.0198,-0.0162,-0.0165,-0.0167,-0.0168,0,0,0,0,0,0,0,-0.0016,-0.0019,-0.0044,-0.0035,-0.0036,-0.0045,-0.0046,-0.0091,-0.0084,-0.0042,-0.0042,-0.005,-0.0122,-0.0125,-0.0131,-0.02,-0.0162,-0.0166,-0.0168,-0.017,-0.0315,-0.0316,0,0,0,0,0,0,-0.0018,-0.0017,-0.0043,-0.0045,-0.0028,-0.0047,-0.0048,-0.0047,-0.0082,-0.0087,-0.0051,-0.0049,-0.0118,-0.0126,-0.0135,-0.0169,-0.0167,-0.0171,-0.0173,-0.0313,-0.0315,-0.0316,0,0,0,0,0,0,-0.0017,-0.002,-0.0042,-0.0035,-0.0038,-0.0048,-0.0048,-0.0048,-0.0049,-0.0089,-0.0094,-0.0051,-0.0117,-0.0129,-0.0181,-0.0173,-0.0173,-0.0177,-0.0312,-0.0314,-0.0315,-0.0249,0,0,0,0,0,0,-0.0016,-0.0019,-0.0018,-0.0034,-0.0039,-0.0058,-0.0049,-0.005,-0.0057,-0.0055,-0.0091,-0.0099,-0.0118,-0.0175,-0.0186,-0.0179,-0.018,-0.031,-0.0313,-0.0315,-0.025,-0.0249,-0.0248,0,0,0,0,0,-0.0014,-0.0009,-0.0017,-0.0021,-0.0037,-0.0058,-0.0061,-0.0064,-0.0058,-0.0061,-0.0091,-0.0097,-0.0196,-0.018,-0.0192,-0.0187,-0.0309,-0.0312,-0.0315,-0.0251,-0.0249,-0.0248,0,0,0,0,0,0,0.0011,-0.0008,-0.0017,-0.0017,-0.004,-0.0057,-0.0058,-0.0066,-0.0089,-0.009,-0.0119,-0.013,-0.0171,-0.0202,-0.0183,-0.0239,-0.0252,-0.0257,-0.0199,-0.0198,-0.0197,-0.0141,-0.0184,0,0,0,0,0,0.0013,0.0012,-0.0016,-0.0016,-0.0027,-0.0045,-0.0053,-0.0062,-0.0087,-0.0094,-0.0121,-0.0158,-0.0194,-0.0213,-0.0254,-0.0291,-0.0278,-0.0298,-0.0296,-0.0295,-0.0261,-0.025,-0.0243,-0.0325,-0.0325,-0.0325,0,0,0.0022,0.0011,0.001,-0.0012,-0.0025,-0.0027,-0.0046,-0.0062,-0.0056,-0.0106,-0.0112,-0.016,-0.0207,-0.0239,-0.026,-0.0261,-0.0267,-0.0298,-0.0296,-0.0262,-0.0252,-0.0243,-0.0235,-0.0327,-0.0326,-0.0326,0,0,0.0047,0.0028,0.0038,0.002,-0.0007,-0.002,-0.0025,-0.0052,-0.0056,-0.0089,-0.0115,-0.0154,-0.0218,-0.0232,-0.0251,-0.0274,-0.0265,-0.0301,-0.0239,-0.023,-0.0221,-0.0214,-0.0181,-0.0171,-0.0294,-0.0294,-0.0294,0,0.0061,0.007,0.0035,0.0039,0.0037,-0.0012,0.0002,-0.0016,-0.0056,-0.0049,-0.0086,-0.0147,-0.0202,-0.0204,-0.0217,-0.0263,-0.025,-0.0234,-0.0222,-0.0214,-0.0207,-0.0176,-0.0166,-0.0291,-0.0291,-0.0291,-0.0292,0,0.0093,0.0098,0.0101,0.0097,0.0086,0.0082,0.0051,0.0041,0.0017,0.0006,-0.0016,-0.0092,-0.0115,-0.0154,-0.0195,-0.0177,-0.018,-0.0221,-0.0209,-0.0193,-0.0164,-0.0154,-0.0287,-0.0288,-0.0289,-0.0289,0,0,0.0138,0.013,0.0131,0.0154,0.0117,0.0124,0.012,0.0123,0.0159,0.0089,0.0136,0.0038,0.0006,-0.0019,-0.0079,-0.0082,-0.0046,-0.0126,-0.0127,-0.0063,0.0003,-0.0003,0.0007,-0.008,-0.0078,-0.0077,0.0008,0,0.018,0.022,0.0193,0.0236,0.0259,0.0219,0.0236,0.0229,0.021,0.0234,0.0166,0.0171,0.0055,0.0053,0.0022,-0.0022,-0.0017,-0.0062,-0.0048,-0.0046,-0.0028,0.0018,-0.0006,0.0066,0.0017,0.0019,0.002,0,0.0224,0.0251,0.0306,0.0341,0.0349,0.0367,0.041,0.0414,0.0417,0.0406,0.0384,0.0336,0.0314,0.0212,0.0164,0.0143,0.0084,0.0043,0.0044,0.0032,-0.0034,0.0037,0.0086,-0.0098,0.0035,0.0034,0.0033,0,0.0303,0.0333,0.0393,0.0399,0.0423,0.0458,0.0472,0.0482,0.0523,0.0537,0.0585,0.0515,0.0535,0.0427,0.0311,0.0248,0.0284,0.0182,0.0131,0.013,0.0112,0.0107,0.0016,0.0172,0.0172,0.0172,0.0172,0,0.0364,0.0414,0.0446,0.0481,0.0576,0.0555,0.0649,0.0654,0.0694,0.0795,0.0692,0.0779,0.0595,0.0575,0.041,0.0328,0.0361,0.0179,0.0161,0.013,0.0126,-0.0035,-0.0141,0.0175,0.0174,0.0174,0.0173,0,0.0443,0.0453,0.0541,0.0595,0.0618,0.0695,0.0769,0.084,0.0865,0.1,0.1025,0.102,0.1003,0.0822,0.0703,0.0511,0.0298,0.0356,0.0346,0.0323,0.0049,-0.0052,-0.0116,-0.0187,0.0299,0.03,0.03,0,0.0489,0.0539,0.0638,0.0705,0.0738,0.0832,0.0898,0.0927,0.1019,0.1173,0.1269,0.1306,0.1363,0.1176,0.0855,0.0607,0.0398,0.0401,0.0249,0.0069,-0.0058,-0.0141,-0.0203,0.0253,0.0253,0.0253,0.0253,0,0.0585,0.0622,0.0694,0.0825,0.0919,0.1028,0.1136,0.124,0.1323,0.1467,0.168,0.1752,0.1581,0.1332,0.0966,0.0754,0.0255,0.0392,0.0204,-0.0084,-0.0176,-0.0265,0.0173,0.0253,0.0253,0.0253,0.0253,0.0253,0.0662,0.0735,0.0825,0.0955,0.1069,0.1226,0.1341,0.1493,0.1692,0.1941,0.1986,0.2125,0.1706,0.1209,0.0911,0.0294,0.0295,0.0062,-0.0033,-0.0091,-0.0201,0.0254,0.03,0.03,0.03,0.03,0.0301,0,0.075,0.0816,0.0941,0.1101,0.1246,0.1283,0.1496,0.1641,0.1921,0.2146,0.2338,0.2182,0.1681,0.1121,0.0297,-0.0093,-0.0251,-0.0303,-0.0456,-0.0492,-0.0084,-0.0134,-0.0179,-0.0179,-0.0179,-0.0178,-0.0178,-0.0178,0.0795,0.0915,0.0973,0.1215,0.1336,0.1535,0.1671,0.1923,0.2112,0.2387,0.2449,0.2465,0.1983,0.0593,-0.0322,-0.051,-0.079,-0.0837,-0.0941,-0.0721,-0.0696,-0.0672,-0.0746,-0.0918,-0.0919,-0.133,-0.1334,-0.1338]}],[{"header":{"parameterUnit":"m.s-1","parameterCategory":2,"la1":30.2991,"la2":30.254,"lo1":-89.0895,"lo2":-89.0444,"dy":0.0017,"dx":0.0017,"nx":28,"ny":28,"refTime":"2025-09-04T03:00:00:Z","depth":"2","parameterNumber":2,"parameterNumberName":"U-component_of_CURRENTS"},"data":[0,0,0,0,0,0,0,0,0,0,0,0,0,0,0,0,0,0,0,0,0,0,0,0,0,0,0,0,0,0,0,0,0,0,0,0,0,0,0,0,0,0,0,0,0,0,0,0,0,0,0,0,0,0,0,0,0,0,0.2487,0.2487,0,0.2557,0.2558,0.2559,0.2627,0.2627,0.2628,0.2628,0.2635,0.2635,0.2635,0,0,0,0,0,0,0,0,0,0,0,0,0,0.232,0.2323,0.2487,0.2487,0.2487,0.2557,0.2558,0.256,0.2627,0.2627,0.2628,0.2628,0.2635,0.2635,0.2635,0,0,0,0,0,0,0,0,0,0,0,0,0,0.2397,0.2325,0.2487,0.2525,0.2529,0.2556,0.2558,0.256,0.2627,0.2627,0.2628,0.2628,0.2635,0.2635,0.2635,0.2624,0,0,0.2634,0.2634,0,0,0,0,0,0,0,0,0.2393,0.2404,0.2519,0.2522,0.2526,0.2578,0.2501,0.2576,0.2627,0.2596,0.2628,0.2628,0.2606,0.2608,0.263,0.2624,0.2624,0.2634,0.2634,0.2634,0.2634,0,0,0,0,0,0,0,0.2387,0.2401,0.252,0.2519,0.2524,0.2507,0.252,0.2516,0.2601,0.2598,0.2602,0.26,0.2608,0.263,0.263,0.2625,0.2634,0.2634,0.2634,0.2634,0.2686,0.2687,0,0,0,0,0,0,0.2372,0.2397,0.2518,0.2522,0.2453,0.2509,0.2524,0.2566,0.2602,0.2607,0.26,0.2603,0.263,0.263,0.263,0.273,0.2634,0.2634,0.2634,0.2684,0.2686,0.2688,0,0,0,0,0,0,0.2369,0.2384,0.2515,0.2453,0.2468,0.2512,0.2558,0.2567,0.2618,0.2603,0.2608,0.2644,0.263,0.263,0.2628,0.2726,0.2634,0.2634,0.2683,0.2685,0.2687,0.2858,0,0,0,0,0,0,0.2365,0.2384,0.2416,0.2454,0.247,0.2535,0.2557,0.2568,0.2611,0.2617,0.2641,0.2641,0.2631,0.2628,0.2628,0.2724,0.2633,0.2681,0.2684,0.2686,0.285,0.2865,0.2878,0,0,0,0,0,0.2359,0.2375,0.2419,0.2432,0.2514,0.2534,0.2542,0.2577,0.2613,0.2629,0.2638,0.2642,0.2647,0.2628,0.2627,0.2727,0.2679,0.2683,0.2686,0.2844,0.2862,0.2878,0,0,0,0,0,0,0.2333,0.2385,0.2432,0.2473,0.251,0.2543,0.2558,0.2595,0.2623,0.2637,0.2638,0.2636,0.267,0.2656,0.2635,0.2744,0.2674,0.2678,0.2794,0.2812,0.2826,0.2875,0.2633,0,0,0,0,0,0.2342,0.2372,0.2423,0.2464,0.2482,0.2537,0.2556,0.2587,0.2608,0.2626,0.2639,0.2658,0.268,0.2709,0.2694,0.2753,0.2761,0.2819,0.2833,0.2846,0.2882,0.2972,0.3,0.2699,0.2699,0.2699,0,0,0.235,0.2378,0.2403,0.2459,0.2499,0.2545,0.2552,0.2588,0.2653,0.2616,0.2692,0.2683,0.2691,0.275,0.2772,0.2762,0.2927,0.285,0.2862,0.2891,0.2979,0.3009,0.3036,0.2701,0.2701,0.27,0,0,0.2371,0.2408,0.2449,0.2485,0.2535,0.2551,0.257,0.2622,0.2672,0.2719,0.2727,0.2784,0.2793,0.286,0.2888,0.2972,0.297,0.2965,0.3123,0.3211,0.3238,0.3262,0.3285,0.3309,0.3011,0.3011,0.3011,0,0.2387,0.2462,0.2461,0.2518,0.2548,0.2565,0.2626,0.2676,0.2725,0.2781,0.2752,0.2858,0.2868,0.3012,0.3056,0.302,0.3029,0.3067,0.3237,0.3261,0.3283,0.33,0.3325,0.302,0.3019,0.3018,0.3017,0,0.2461,0.2525,0.2544,0.2628,0.2643,0.2689,0.274,0.2783,0.2824,0.2893,0.3006,0.3028,0.3113,0.314,0.3135,0.3319,0.3257,0.3219,0.3208,0.3325,0.3332,0.3356,0.3032,0.3029,0.3026,0.3024,0,0,0.2494,0.2584,0.2601,0.2665,0.2711,0.2736,0.2813,0.2906,0.3008,0.3069,0.3218,0.3309,0.3349,0.3384,0.3408,0.3517,0.3682,0.3461,0.3461,0.3508,0.3836,0.3648,0.3654,0.3677,0.3683,0.3687,0.3771,0,0.2573,0.2678,0.2701,0.2809,0.2857,0.2884,0.2962,0.3044,0.3107,0.3239,0.3345,0.347,0.344,0.3515,0.3621,0.366,0.3755,0.366,0.3694,0.3695,0.3536,0.368,0.3417,0.3458,0.3793,0.3797,0.38,0,0.2623,0.27,0.2796,0.2909,0.294,0.3012,0.3115,0.3202,0.3364,0.3428,0.357,0.3629,0.383,0.3765,0.3941,0.3877,0.3885,0.3899,0.3902,0.3692,0.3552,0.3397,0.3487,0.3838,0.3835,0.3832,0.383,0,0.2574,0.2746,0.2814,0.286,0.2991,0.3069,0.3157,0.3279,0.3369,0.3584,0.3665,0.3857,0.3961,0.4045,0.4058,0.4033,0.4187,0.4146,0.3976,0.3959,0.3726,0.3679,0.4271,0.4271,0.427,0.427,0.427,0,0.258,0.2673,0.2833,0.2876,0.3019,0.3114,0.3257,0.336,0.3533,0.3629,0.3798,0.3877,0.4039,0.4114,0.4128,0.4109,0.4242,0.404,0.3999,0.3767,0.3725,0.4041,0.4013,0.4273,0.4272,0.4272,0.4271,0,0.2534,0.2601,0.2734,0.2926,0.2971,0.3105,0.3291,0.3397,0.3572,0.3696,0.3777,0.3949,0.403,0.4113,0.4221,0.4165,0.4188,0.4127,0.3807,0.3726,0.3887,0.3867,0.4014,0.4009,0.4004,0.4,0.3997,0,0.2522,0.2581,0.2747,0.2793,0.2905,0.3086,0.3156,0.3372,0.3463,0.3675,0.3722,0.3877,0.3891,0.3988,0.3957,0.3964,0.4046,0.3692,0.3615,0.3932,0.3877,0.3863,0.385,0.3367,0.3359,0.3352,0.3347,0,0.2564,0.2617,0.2688,0.2763,0.2861,0.2972,0.3124,0.3187,0.3387,0.3493,0.3574,0.363,0.3705,0.3588,0.3594,0.3556,0.3686,0.3553,0.4031,0.3445,0.3321,0.3266,0.3275,0.3288,0.3294,0.3298,0.3301,0.3304,0.2578,0.2618,0.2632,0.2746,0.2824,0.2849,0.2867,0.2979,0.3059,0.3142,0.3281,0.3272,0.3319,0.3194,0.3097,0.3061,0.3305,0.3198,0.3221,0.3249,0.3132,0.3005,0.2889,0.2892,0.2895,0.2898,0.29,0,0.2611,0.2593,0.2608,0.2654,0.2689,0.2768,0.2802,0.2755,0.2751,0.2848,0.2879,0.266,0.2604,0.2668,0.2533,0.2532,0.2536,0.2429,0.2434,0.2495,0.2548,0.2396,0.1957,0.1954,0.195,0.1947,0,0,0.2555,0.2536,0.2514,0.2501,0.2542,0.2445,0.2419,0.2385,0.2397,0.2302,0.23,0.2471,0.2605,0.224,0.2202,0.2063,0.2259,0.1984,0.2751,0.282,0.2869,0.3012,0.2848,0,0,0,0,0]},{"header":{"parameterUnit":"m.s-1","parameterCategory":2,"la1":30.2991,"la2":30.254,"lo1":-89.0895,"lo2":-89.0444,"dy":0.0017,"dx":0.0017,"nx":28,"ny":28,"refTime":"2025-09-04T03:00:00:Z","depth":"2","parameterNumber":3,"parameterNumberName":"V-component_of_CURRENTS"},"data":[0,0,0,0,0,0,0,0,0,0,0,0,0,0,0,0,0,0,0,0,0,0,0,0,0,0,0,0,0,0,0,0,0,0,0,0,0,0,0,0,0,0,0,0,0,0,0,0,0,0,0,0,0,0,0,0,0,0,0.0113,0.0112,0,0.0043,0.0042,0.0041,-0.0013,-0.0014,-0.0014,-0.0015,-0.0096,-0.0098,-0.01,0,0,0,0,0,0,0,0,0,0,0,0,0,0.0187,0.0186,0.0113,0.0112,0.0111,0.0043,0.0042,0.0041,-0.0013,-0.0014,-0.0014,-0.0015,-0.0096,-0.0098,-0.01,0,0,0,0,0,0,0,0,0,0,0,0,0,0.0139,0.0186,0.0113,0.0077,0.0073,0.0044,0.0042,0.0041,-0.0013,-0.0014,-0.0014,-0.0015,-0.0095,-0.0098,-0.01,-0.0105,0,0,-0.0109,-0.011,0,0,0,0,0,0,0,0,0.0142,0.0136,0.0083,0.0079,0.0075,0.0024,0.0039,-0.0008,-0.0013,0.0018,-0.0015,-0.0015,-0.0056,-0.0062,-0.0075,-0.0109,-0.0112,-0.0109,-0.0111,-0.0112,-0.0113,0,0,0,0,0,0,0,0.0145,0.0139,0.0084,0.0082,0.0077,0.0061,0.0053,0.0029,-0.0016,0.0015,0.0012,0.0006,-0.0058,-0.0073,-0.0078,-0.0114,-0.0109,-0.0111,-0.0113,-0.0114,-0.0163,-0.0163,0,0,0,0,0,0,0.0158,0.0142,0.0086,0.0082,0.0109,0.006,0.0051,0.004,-0.0016,-0.0024,0.0007,0.0004,-0.0068,-0.0075,-0.0081,-0.0102,-0.0112,-0.0114,-0.0116,-0.0164,-0.0163,-0.0163,0,0,0,0,0,0,0.0159,0.0153,0.0089,0.0112,0.0103,0.006,0.0047,0.0039,0.0019,-0.0022,-0.0031,-0.0005,-0.0069,-0.0077,-0.0085,-0.0105,-0.0115,-0.0118,-0.0164,-0.0163,-0.0163,-0.0136,0,0,0,0,0,0,0.0162,0.0154,0.0145,0.0112,0.0102,0.0089,0.0048,0.0038,0.0018,0.0013,-0.0035,-0.0043,-0.007,-0.0081,-0.0088,-0.0109,-0.012,-0.0164,-0.0164,-0.0163,-0.0137,-0.0134,-0.0132,0,0,0,0,0,0.0165,0.0183,0.0144,0.0137,0.0092,0.009,0.0084,0.005,0.0018,0.0025,-0.0006,-0.0042,-0.0083,-0.0082,-0.009,-0.0113,-0.0165,-0.0164,-0.0163,-0.0138,-0.0135,-0.0132,0,0,0,0,0,0,0.0205,0.0177,0.0135,0.0138,0.0114,0.0082,0.0085,0.0051,0.0029,0.0018,-0.0027,-0.0036,-0.0044,-0.0077,-0.0075,-0.0124,-0.0135,-0.0135,-0.0112,-0.011,-0.0107,-0.0133,-0.0122,0,0,0,0,0,0.0208,0.0209,0.0173,0.0167,0.0163,0.0115,0.0104,0.0078,0.0056,0.0044,0.0009,-0.0028,-0.0048,-0.0076,-0.0086,-0.0118,-0.0125,-0.014,-0.0138,-0.0136,-0.0161,-0.0177,-0.0179,-0.0161,-0.0161,-0.0161,0,0,0.0212,0.0201,0.0193,0.0174,0.015,0.0155,0.0108,0.0102,0.009,0.004,0.0021,-0.0004,-0.0045,-0.0066,-0.0079,-0.0103,-0.0132,-0.0135,-0.0133,-0.016,-0.0177,-0.0179,-0.018,-0.016,-0.016,-0.016,0,0,0.0242,0.022,0.023,0.0228,0.0204,0.0185,0.0185,0.0151,0.0122,0.0107,0.0066,0.0027,-0.0003,-0.0053,-0.0079,-0.0073,-0.0096,-0.008,-0.012,-0.0134,-0.0136,-0.0138,-0.0095,-0.0094,-0.0107,-0.0106,-0.0106,0,0.0241,0.0249,0.0233,0.0252,0.0254,0.0204,0.0218,0.0189,0.015,0.0126,0.0114,0.0035,-0.0001,-0.0063,-0.0074,-0.0072,-0.0064,-0.0127,-0.0132,-0.0135,-0.0137,-0.0093,-0.0092,-0.0105,-0.0105,-0.0105,-0.0106,0,0.0279,0.0286,0.0304,0.0303,0.0309,0.0321,0.0289,0.0278,0.0238,0.0189,0.0135,0.0073,0.0012,-0.0011,-0.0051,-0.0109,-0.0085,-0.0102,-0.0141,-0.0138,-0.009,-0.0089,-0.0103,-0.0104,-0.0104,-0.0104,0,0,0.0277,0.0317,0.0321,0.0329,0.0339,0.0347,0.035,0.0323,0.0299,0.0235,0.0202,0.0105,0.0033,-0.0004,-0.0074,-0.0129,-0.0131,-0.0146,-0.0147,-0.0104,-0.012,-0.0171,-0.0175,-0.0151,-0.0153,-0.0153,-0.0059,0,0.0299,0.0353,0.0364,0.0401,0.043,0.0415,0.0408,0.0377,0.0342,0.0307,0.0197,0.0154,0.0045,0.001,-0.0072,-0.0087,-0.0138,-0.0152,-0.013,-0.0129,-0.0178,-0.0181,-0.0161,-0.0085,-0.0058,-0.0058,-0.0058,0,0.0339,0.0368,0.0425,0.0445,0.045,0.0458,0.0457,0.0434,0.0377,0.0353,0.0266,0.0208,0.0114,0.0035,-0.0058,-0.0059,-0.0112,-0.0142,-0.0139,-0.0211,-0.0184,-0.0095,-0.0085,-0.0057,-0.0057,-0.0057,-0.0058,0,0.0372,0.0413,0.0462,0.0478,0.0493,0.0498,0.0474,0.0437,0.0449,0.038,0.043,0.0266,0.027,0.0137,0.0038,0.0008,-0.003,-0.0054,-0.0154,-0.0153,-0.015,-0.015,-0.0143,-0.0143,-0.0143,-0.0144,-0.0144,0,0.0418,0.0444,0.0476,0.0503,0.0531,0.0507,0.0516,0.0489,0.0486,0.0535,0.0429,0.047,0.0295,0.0254,0.01,-0.0017,0.0024,-0.0168,-0.0155,-0.0134,-0.0134,-0.014,-0.0141,-0.014,-0.0141,-0.0142,-0.0142,0,0.045,0.0479,0.0535,0.0554,0.0563,0.0569,0.0594,0.0607,0.0601,0.0694,0.0708,0.0686,0.0613,0.0435,0.0286,0.0129,-0.0014,-0.0078,-0.0023,-0.0012,-0.0129,-0.013,-0.0147,-0.0148,-0.015,-0.0151,-0.0152,0,0.0467,0.0503,0.0585,0.0629,0.0637,0.065,0.0675,0.0665,0.0731,0.0834,0.0919,0.0892,0.087,0.063,0.0324,0.0067,0.0001,-0.0071,-0.0179,-0.0156,-0.014,-0.0139,-0.0137,-0.011,-0.0111,-0.0111,-0.0112,0,0.0477,0.052,0.0579,0.0682,0.0738,0.0807,0.0853,0.0954,0.099,0.111,0.1242,0.1232,0.0987,0.0711,0.0328,0.0133,-0.0043,-0.009,-0.0058,-0.0148,-0.0125,-0.0109,-0.0108,-0.0115,-0.0115,-0.0115,-0.0115,-0.0114,0.0476,0.0538,0.0635,0.0737,0.0814,0.0943,0.1028,0.1142,0.129,0.1459,0.1438,0.1427,0.1103,0.0591,0.0266,-0.0072,-0.0072,-0.0186,-0.0182,-0.0179,-0.0228,-0.0213,-0.0223,-0.0223,-0.0224,-0.0224,-0.0224,0,0.0445,0.0536,0.0663,0.0803,0.0913,0.0951,0.1142,0.1256,0.1464,0.1574,0.1641,0.1338,0.1016,0.0644,0.0144,-0.0161,-0.0183,-0.0257,-0.0209,-0.0203,-0.0199,-0.0249,-0.0249,-0.025,-0.0251,-0.0251,0,0,0.0432,0.0534,0.0649,0.0856,0.0963,0.114,0.1273,0.1462,0.1585,0.1677,0.1661,0.1552,0.1122,0.0753,0.0327,0.0054,-0.0002,-0.0009,0.0041,0.0154,0.0162,-0.0133,-0.0201,0,0,0,0,0]}],[{"header":{"parameterUnit":"m.s-1","parameterCategory":2,"la1":30.2991,"la2":30.254,"lo1":-89.0895,"lo2":-89.0444,"dy":0.0017,"dx":0.0017,"nx":28,"ny":28,"refTime":"2025-09-04T03:00:00:Z","depth":"4","parameterNumber":2,"parameterNumberName":"U-component_of_CURRENTS"},"data":[0,0,0,0,0,0,0,0,0,0,0,0,0,0,0,0,0,0,0,0,0,0,0,0,0,0,0,0,0,0,0,0,0,0,0,0,0,0,0,0,0,0,0,0,0,0,0,0,0,0,0,0,0,0,0,0,0,0,0.1273,0.1274,0,0.1369,0.1369,0.137,0.1425,0.1426,0.1427,0.1427,0.1486,0.1487,0.1488,0,0,0,0,0,0,0,0,0,0,0,0,0,0.1137,0.1139,0.1272,0.1274,0.1276,0.1368,0.1369,0.137,0.1425,0.1426,0.1427,0.1428,0.1486,0.1487,0.1488,0,0,0,0,0,0,0,0,0,0,0,0,0,0.1206,0.114,0.1272,0.1318,0.1324,0.1368,0.1369,0.137,0.1425,0.1426,0.1427,0.1428,0.1485,0.1487,0.1488,0.1476,0,0,0.1492,0.1493,0,0,0,0,0,0,0,0,0.1202,0.121,0.131,0.1315,0.1321,0.1391,0.1344,0.1406,0.1425,0.1381,0.1427,0.1428,0.1453,0.1457,0.1466,0.1479,0.1481,0.1492,0.1493,0.1494,0.1494,0,0,0,0,0,0,0,0.1197,0.1206,0.1305,0.1312,0.1319,0.1335,0.1345,0.1355,0.1405,0.1385,0.139,0.1409,0.1455,0.1465,0.1468,0.1482,0.1492,0.1493,0.1494,0.1495,0.1562,0.1563,0,0,0,0,0,0,0.1195,0.1202,0.1302,0.1309,0.1269,0.1337,0.1348,0.1363,0.1406,0.1416,0.1408,0.1411,0.1462,0.1466,0.147,0.1528,0.1494,0.1495,0.1496,0.1561,0.1562,0.1563,0,0,0,0,0,0,0.1191,0.1203,0.1298,0.1262,0.1276,0.1339,0.1355,0.1365,0.1406,0.1425,0.1433,0.1444,0.1463,0.1468,0.1504,0.1528,0.1496,0.1497,0.156,0.1561,0.1563,0.16,0,0,0,0,0,0,0.1187,0.12,0.1217,0.1261,0.1278,0.1334,0.1355,0.1366,0.1416,0.1422,0.1458,0.1463,0.1464,0.1502,0.1506,0.153,0.1498,0.1559,0.1561,0.1562,0.1597,0.1602,0.1607,0,0,0,0,0,0.1182,0.1196,0.1217,0.123,0.1297,0.1334,0.1344,0.1388,0.1417,0.143,0.1463,0.1463,0.1516,0.1504,0.1508,0.1533,0.1558,0.156,0.1562,0.1595,0.1601,0.1606,0,0,0,0,0,0,0.1155,0.1205,0.1229,0.1261,0.1301,0.1346,0.1368,0.1404,0.1441,0.1454,0.1475,0.1481,0.1522,0.1521,0.1508,0.1557,0.1537,0.154,0.1561,0.1567,0.1571,0.1585,0.1499,0,0,0,0,0,0.1155,0.1178,0.1227,0.1258,0.1275,0.1328,0.1356,0.1387,0.1425,0.1445,0.1476,0.1504,0.1528,0.1544,0.1559,0.1585,0.161,0.1603,0.1608,0.1612,0.1626,0.1665,0.1675,0.157,0.157,0.157,0,0,0.1156,0.1188,0.1204,0.1254,0.1287,0.132,0.1346,0.139,0.1429,0.1442,0.1504,0.1523,0.1539,0.1571,0.1589,0.1577,0.1661,0.1615,0.1618,0.163,0.1668,0.1678,0.1688,0.1572,0.1572,0.1571,0,0,0.116,0.1194,0.1211,0.124,0.1294,0.1328,0.1348,0.1406,0.1441,0.1493,0.1517,0.1559,0.1592,0.1615,0.1628,0.1667,0.1685,0.1669,0.1705,0.1742,0.1751,0.1759,0.1834,0.1848,0.167,0.167,0.167,0,0.1168,0.119,0.1223,0.1245,0.1277,0.1335,0.1364,0.1405,0.1474,0.1507,0.1516,0.1601,0.1615,0.1667,0.1683,0.168,0.1713,0.1681,0.1749,0.1757,0.1765,0.1839,0.1855,0.1672,0.1672,0.1672,0.1672,0,0.117,0.1202,0.1214,0.1263,0.1299,0.1331,0.1391,0.1443,0.1498,0.1541,0.1613,0.1642,0.1693,0.1704,0.1708,0.1772,0.1785,0.1751,0.1735,0.1778,0.1853,0.1869,0.1675,0.1674,0.1674,0.1673,0,0,0.1165,0.1207,0.1216,0.1241,0.1309,0.134,0.1409,0.1481,0.1545,0.1602,0.1674,0.1724,0.1752,0.177,0.1785,0.1824,0.1917,0.1816,0.1817,0.1893,0.2036,0.1899,0.1903,0.189,0.1892,0.1894,0.2078,0,0.1167,0.119,0.1224,0.1278,0.1297,0.137,0.1432,0.1507,0.158,0.1661,0.1708,0.1783,0.1772,0.1816,0.1845,0.1916,0.1955,0.1873,0.1982,0.1986,0.1859,0.1914,0.1901,0.209,0.2093,0.2096,0.2098,0,0.1157,0.1177,0.1208,0.1283,0.1302,0.1354,0.147,0.1537,0.1653,0.1713,0.1788,0.1833,0.1933,0.1894,0.2032,0.1982,0.201,0.2047,0.2053,0.1921,0.1875,0.2031,0.2126,0.2123,0.2121,0.2119,0.2118,0,0.1117,0.1174,0.1198,0.1219,0.1309,0.1362,0.1433,0.1553,0.1619,0.1767,0.1839,0.1933,0.2026,0.2067,0.214,0.2104,0.2272,0.2226,0.213,0.2123,0.2177,0.2166,0.2287,0.2287,0.2287,0.2286,0.2286,0,0.1092,0.1121,0.1185,0.1202,0.1263,0.1343,0.1435,0.1537,0.166,0.1753,0.1867,0.1952,0.2072,0.2165,0.2186,0.2221,0.2312,0.2159,0.2154,0.2192,0.2181,0.219,0.2177,0.2293,0.2291,0.229,0.2289,0,0.1039,0.1079,0.1123,0.1213,0.1245,0.1299,0.1423,0.1486,0.1644,0.1775,0.1833,0.2016,0.2164,0.2247,0.2365,0.2299,0.2333,0.2302,0.239,0.2385,0.216,0.2146,0.2246,0.2243,0.224,0.2237,0.2235,0,0.1002,0.1007,0.1112,0.1139,0.1185,0.1263,0.1314,0.1463,0.154,0.1796,0.185,0.205,0.2152,0.224,0.2314,0.2368,0.2309,0.2332,0.2191,0.2167,0.2154,0.2144,0.2135,0.2231,0.223,0.2229,0.2228,0,0.0921,0.0974,0.1026,0.1076,0.1134,0.1177,0.1275,0.1318,0.1519,0.1674,0.1842,0.1932,0.209,0.2177,0.2232,0.2241,0.2326,0.2301,0.2305,0.2173,0.2149,0.2137,0.2131,0.2218,0.222,0.2221,0.2221,0,0.0873,0.0892,0.0955,0.1003,0.1065,0.108,0.1142,0.1245,0.1341,0.1636,0.1687,0.1903,0.208,0.2112,0.2154,0.217,0.2128,0.2053,0.2069,0.2082,0.1932,0.187,0.1869,0,0,0,0,0,0.0786,0.0797,0.0848,0.0903,0.0965,0.0986,0.1107,0.1179,0.1384,0.1466,0.1575,0.1711,0.1833,0.1929,0.191,0.205,0.2108,0.2017,0.2021,0.2162,0.2173,0.2006,0,0,0,0,0,0,0.0734,0.0768,0.0815,0.0802,0.0813,0.0852,0.0923,0.1058,0.1116,0.1345,0.1417,0.1597,0.1724,0.182,0.1872,0.1899,0.1866,0.2142,0.2137,0.2155,0.2166,0.2175,0.2007,0,0,0,0,0]},{"header":{"parameterUnit":"m.s-1","parameterCategory":2,"la1":30.2991,"la2":30.254,"lo1":-89.0895,"lo2":-89.0444,"dy":0.0017,"dx":0.0017,"nx":28,"ny":28,"refTime":"2025-09-04T03:00:00:Z","depth":"4","parameterNumber":3,"parameterNumberName":"V-component_of_CURRENTS"},"data":[0,0,0,0,0,0,0,0,0,0,0,0,0,0,0,0,0,0,0,0,0,0,0,0,0,0,0,0,0,0,0,0,0,0,0,0,0,0,0,0,0,0,0,0,0,0,0,0,0,0,0,0,0,0,0,0,0,0,0.0227,0.0226,0,0.0189,0.0189,0.0188,0.0152,0.0151,0.015,0.015,0.0104,0.0103,0.0102,0,0,0,0,0,0,0,0,0,0,0,0,0,0.0248,0.0248,0.0227,0.0226,0.0225,0.0189,0.0188,0.0188,0.0152,0.0151,0.015,0.0149,0.0104,0.0103,0.0102,0,0,0,0,0,0,0,0,0,0,0,0,0,0.023,0.0248,0.0227,0.0201,0.0198,0.0189,0.0188,0.0188,0.0152,0.0151,0.015,0.0149,0.0104,0.0103,0.0102,0.0117,0,0,0.01,0.0099,0,0,0,0,0,0,0,0,0.0231,0.0229,0.0206,0.0203,0.02,0.0172,0.0179,0.0163,0.0152,0.0172,0.015,0.0148,0.0125,0.0122,0.0121,0.0115,0.0113,0.01,0.0099,0.0099,0.0098,0,0,0,0,0,0,0,0.0232,0.023,0.0214,0.0205,0.0201,0.0185,0.0181,0.0176,0.0156,0.017,0.0167,0.0159,0.0124,0.0122,0.0119,0.0112,0.01,0.0099,0.0098,0.0098,0.0109,0.011,0,0,0,0,0,0,0.0235,0.0232,0.0215,0.0213,0.021,0.0185,0.0181,0.0184,0.0156,0.0151,0.016,0.0158,0.0124,0.012,0.0118,0.0139,0.0099,0.0098,0.0097,0.0109,0.011,0.011,0,0,0,0,0,0,0.0235,0.0234,0.0217,0.0219,0.0215,0.0186,0.0188,0.0183,0.0179,0.0148,0.0143,0.016,0.0123,0.0119,0.0122,0.0136,0.0097,0.0097,0.0108,0.0109,0.011,0.0178,0,0,0,0,0,0,0.0236,0.0235,0.0241,0.0219,0.0215,0.0222,0.0189,0.0183,0.0175,0.0171,0.0147,0.0142,0.0122,0.0124,0.0121,0.0134,0.0096,0.0106,0.0108,0.011,0.0175,0.0181,0.0187,0,0,0,0,0,0.0238,0.0254,0.0242,0.0239,0.0223,0.0222,0.022,0.0196,0.0176,0.0186,0.0169,0.0142,0.0131,0.0124,0.0121,0.0134,0.0106,0.0108,0.0109,0.0172,0.018,0.0187,0,0,0,0,0,0,0.0264,0.0251,0.0237,0.0247,0.0238,0.0215,0.0224,0.0201,0.0196,0.0192,0.0159,0.0154,0.016,0.0141,0.0133,0.0142,0.0112,0.0113,0.0161,0.0168,0.0174,0.0177,0.0095,0,0,0,0,0,0.0273,0.0282,0.0264,0.0271,0.0275,0.025,0.0246,0.0228,0.0216,0.0211,0.0191,0.0174,0.0167,0.0162,0.0153,0.0163,0.0114,0.0167,0.0174,0.0179,0.0179,0.0123,0.0123,0.0117,0.0117,0.0117,0,0,0.0282,0.0276,0.028,0.0277,0.0273,0.0284,0.0247,0.0249,0.0254,0.0209,0.0218,0.0197,0.0175,0.0185,0.0185,0.0169,0.0154,0.0181,0.0186,0.0183,0.0124,0.0125,0.0125,0.0118,0.0118,0.0118,0,0,0.0309,0.0308,0.0327,0.0329,0.0324,0.0312,0.0314,0.0298,0.0292,0.0299,0.0264,0.0253,0.0247,0.0228,0.0219,0.0255,0.019,0.0251,0.0285,0.0231,0.023,0.023,0.0162,0.0154,0.0253,0.0254,0.0254,0,0.0316,0.034,0.0332,0.0353,0.0359,0.0329,0.035,0.0346,0.0327,0.0323,0.0313,0.0285,0.0268,0.0262,0.0278,0.0269,0.022,0.026,0.0238,0.0236,0.0234,0.0164,0.0155,0.0257,0.0257,0.0256,0.0256,0,0.0358,0.0378,0.0396,0.0412,0.042,0.0436,0.0428,0.0429,0.0415,0.0397,0.039,0.0364,0.0339,0.0337,0.0324,0.0303,0.0267,0.0252,0.0217,0.0238,0.0164,0.0153,0.0262,0.0261,0.026,0.0259,0,0,0.0365,0.0414,0.0421,0.0443,0.0454,0.0465,0.0482,0.0484,0.0485,0.0467,0.046,0.0452,0.0415,0.0402,0.037,0.0332,0.0281,0.0294,0.0289,0.0224,0.0143,0.0142,0.0129,0.0258,0.0257,0.0256,0.0094,0,0.0397,0.0452,0.0468,0.0517,0.0544,0.0538,0.0557,0.0551,0.0539,0.0525,0.0485,0.0473,0.0446,0.0434,0.0391,0.0308,0.0256,0.0325,0.0135,0.0129,0.0123,0.0118,0.0252,0.0086,0.0083,0.0081,0.008,0,0.0429,0.0463,0.0521,0.0571,0.0584,0.0611,0.0627,0.0642,0.0615,0.0601,0.0566,0.0522,0.0467,0.0444,0.0299,0.0341,0.025,0.0183,0.0175,0.0142,0.0108,0.0061,0.006,0.0061,0.0063,0.0064,0.0065,0,0.0434,0.05,0.055,0.0568,0.0615,0.0644,0.067,0.0664,0.0677,0.0644,0.0632,0.055,0.0508,0.0391,0.0258,0.0271,0.0085,0.0079,-0.0016,-0.0019,-0.0,0.0002,-0.0031,-0.0031,-0.003,-0.003,-0.0029,0,0.0455,0.0497,0.0563,0.0591,0.065,0.0677,0.0727,0.0729,0.0729,0.0738,0.0673,0.0641,0.0495,0.0374,0.025,0.008,0.0068,-0.0018,-0.0058,0.0032,0.004,-0.0009,-0.0005,-0.0036,-0.0035,-0.0033,-0.0032,0,0.0453,0.0494,0.0556,0.0627,0.0656,0.07,0.0778,0.0806,0.08,0.0804,0.0795,0.069,0.0536,0.0372,0.0166,0.0073,-0.0089,-0.0148,-0.0056,-0.0087,-0.0159,-0.0149,-0.0274,-0.0276,-0.0277,-0.0278,-0.0279,0,0.0458,0.049,0.0581,0.0623,0.0666,0.0742,0.0793,0.0833,0.086,0.0832,0.0826,0.0689,0.0601,0.03,0.0131,-0.0128,-0.0151,-0.024,-0.0179,-0.0157,-0.0183,-0.0171,-0.016,-0.0281,-0.0281,-0.0281,-0.0281,0,0.047,0.0505,0.0555,0.064,0.0712,0.0791,0.087,0.0891,0.0928,0.0915,0.0843,0.0698,0.0516,0.0297,0.0092,-0.0085,-0.018,-0.0252,-0.025,-0.0194,-0.0166,-0.0188,-0.0176,-0.0285,-0.0285,-0.0284,-0.0284,0,0.0481,0.0513,0.0587,0.0656,0.0742,0.0823,0.0868,0.0908,0.0936,0.0909,0.0875,0.0694,0.0586,0.0316,0.0128,-0.0047,-0.008,-0.0117,-0.0123,-0.0121,-0.0014,0.0049,-0.0046,0,0,0,0,0,0.0493,0.0535,0.0601,0.0687,0.0769,0.0827,0.0909,0.0946,0.0975,0.0932,0.0911,0.0745,0.0473,0.0347,0.017,0.0102,-0.0116,-0.011,-0.0162,-0.0307,-0.0303,-0.0201,0,0,0,0,0,0,0.0503,0.0572,0.06,0.0703,0.076,0.0867,0.0922,0.0945,0.0924,0.0914,0.0765,0.0703,0.0428,0.0566,0.0163,0.0109,0.0055,-0.0239,-0.0242,-0.031,-0.0306,-0.0302,-0.0196,0,0,0,0,0]}]]